This demonstration page uses our WeatherBlox Daily Observations layout. Learn more.

Left ArrowRight Arrow

44.89941, -97.11507

Hourly Observations for June 4, 2021

Temp ( °F °C ) Dew Point ( °F °C ) Humidity (%) Winds ( mph kmh ) Pressure ( in mb ) Visibility ( mi km ) Precip ( " mm )
12:53 am 00:53 Clear 67 19.4 53 11.7 61 61 SSW 7 11 29.76 1008 10 16 0.00 0.00
1:53 am 01:53 Clear 67 19.4 53 11.7 61 61 S 5 7 29.76 1008 10 16 0.00 0.00
2:53 am 02:53 Clear 67 19.4 53 11.7 61 61 S 6 9 29.76 1008 10 16 0.00 0.00
3:53 am 03:53 Clear 65 18.3 54 12.2 68 68 S 6 9 29.77 1008 10 16 0.00 0.00
4:53 am 04:53 Clear 64 17.8 52 11.1 65 65 SE 5 7 29.78 1008 10 16 0.00 0.00
5:53 am 05:53 Sunny 62 16.7 52 11.1 70 70 SE 3 6 29.78 1009 10 16 0.00 0.00
6:53 am 06:53 Sunny 64 17.8 55 12.8 73 73 SSE 7 11 29.79 1009 10 16 0.00 0.00
7:53 am 07:53 Sunny 69 20.6 57 13.9 66 66 S 7 11 29.78 1009 10 16 0.00 0.00
8:53 am 08:53 Sunny 75 23.9 58 14.4 55 55 S 6 9 29.78 1009 10 16 0.00 0.00
9:53 am 09:53 Sunny 80 26.7 59 15 49 49 S 7 11 29.78 1008 10 16 0.00 0.00
10:53 am 10:53 Sunny 86 30 60 15.6 42 42 S 9 15 29.76 1008 10 16 0.00 0.00
11:53 am 11:53 Sunny 89 31.7 55 12.8 31 31 SSW 13 20 29.75 1007 10 16 0.00 0.00
12:53 pm 12:53 Sunny 91 32.8 51 10.6 26 26 S 12 19 29.73 1007 10 16 0.00 0.00
1:53 pm 13:53 Sunny 92 33.3 49 9.4 23 23 S 15 24 29.71 1006 10 16 0.00 0.00
2:53 pm 14:53 Sunny 94 34.4 47 8.3 20 20 SW 15 24 29.69 1005 10 16 0.00 0.00
3:53 pm 15:53 Sunny 94 34.4 52 11.1 24 24 SW 17 28 29.67 1005 10 16 0.00 0.00
4:53 pm 16:53 Sunny 94 34.4 52 11.1 24 24 SW 17 28 29.66 1005 10 16 0.00 0.00
5:53 pm 17:53 Sunny 93 33.9 54 12.2 27 27 SSW 12 19 29.65 1004 10 16 0.00 0.00
6:53 pm 18:53 Sunny 91 32.8 55 12.8 30 30 W 9 15 29.63 1004 10 16 0.00 0.00
7:53 pm 19:53 Sunny 87 30.6 60 15.6 40 40 SSW 6 9 29.62 1003 10 16 0.00 0.00
8:53 pm 20:53 Sunny 80 26.7 56 13.3 44 44 WSW 5 7 29.62 1003 10 16 0.00 0.00
9:53 pm 21:53 Clear 75 23.9 56 13.3 52 52 Calm 29.64 1004 10 16 0.00 0.00
10:53 pm 22:53 Clear 73 22.8 57 13.9 57 57 S 6 9 29.64 1004 10 16 0.00 0.00
11:53 pm 23:53 Clear 73 22.8 58 14.4 59 59 S 9 15 29.62 1003 10 16 0.00 0.00

Powered by AerisWeather